Time,TemperatureF,DewpointF,PressureIn,WindDirection,WindDirectionDegrees,WindSpeedMPH,WindSpeedGustMPH,Humidity,HourlyPrecipIn,Conditions,Clouds,dailyrainin,SoftwareType,DateUTC
2013-10-16 00:07:00,28.0,26.0,30.48,ESE,110,0.0,-999.0,91,-99.99,,,0.12,weatherlink.com 1.10,2013-10-16 06:07:00,
2013-10-16 00:22:00,27.7,26.0,30.48,ESE,110,0.0,-999.0,91,-99.99,,,0.12,weatherlink.com 1.10,2013-10-16 06:22:00,
2013-10-16 00:37:00,27.3,25.0,30.48,ESE,105,0.0,-999.0,91,-99.99,,,0.12,weatherlink.com 1.10,2013-10-16 06:37:00,
2013-10-16 00:52:00,26.9,24.0,30.48,ESE,105,0.0,-999.0,90,-99.99,,,0.12,weatherlink.com 1.10,2013-10-16 06:52:00,
2013-10-16 01:07:00,26.9,25.0,30.48,ESE,105,0.0,-999.0,91,-99.99,,,0.12,weatherlink.com 1.10,2013-10-16 07:07:00,
2013-10-16 01:22:00,26.9,25.0,30.50,ESE,105,0.0,-999.0,91,-99.99,,,0.12,weatherlink.com 1.10,2013-10-16 07:22:00,
2013-10-16 01:38:00,27.1,25.0,30.50,ESE,105,0.0,-999.0,91,-99.99,,,0.12,weatherlink.com 1.10,2013-10-16 07:38:00,
2013-10-16 01:53:00,27.1,25.0,30.50,ESE,105,0.0,-999.0,91,-99.99,,,0.12,weatherlink.com 1.10,2013-10-16 07:53:00,
2013-10-16 02:08:00,27.1,25.0,30.51,ESE,105,0.0,-999.0,91,-99.99,,,0.12,weatherlink.com 1.10,2013-10-16 08:08:00,
2013-10-16 02:23:00,27.1,25.0,30.51,North,360,2.0,-999.0,91,-99.99,,,0.12,weatherlink.com 1.10,2013-10-16 08:23:00,
2013-10-16 02:38:00,26.8,25.0,30.51,North,360,0.0,-999.0,91,-99.99,,,0.12,weatherlink.com 1.10,2013-10-16 08:38:00,
2013-10-16 02:53:00,26.5,24.0,30.51,North,360,0.0,-999.0,91,-99.99,,,0.12,weatherlink.com 1.10,2013-10-16 08:53:00,
2013-10-16 03:08:00,26.4,24.0,30.50,North,360,0.0,-999.0,91,-99.99,,,0.12,weatherlink.com 1.10,2013-10-16 09:08:00,
2013-10-16 03:23:00,26.5,25.0,30.49,SE,133,0.0,-999.0,92,-99.99,,,0.12,weatherlink.com 1.10,2013-10-16 09:23:00,
2013-10-16 03:38:00,26.9,25.0,30.49,SE,133,0.0,-999.0,92,-99.99,,,0.12,weatherlink.com 1.10,2013-10-16 09:38:00,
2013-10-16 03:53:00,27.2,25.0,30.48,SE,133,0.0,-999.0,92,-99.99,,,0.12,weatherlink.com 1.10,2013-10-16 09:53:00,
2013-10-16 04:08:00,27.3,25.0,30.48,SE,135,0.0,-999.0,92,-99.99,,,0.12,weatherlink.com 1.10,2013-10-16 10:08:00,
2013-10-16 04:23:00,26.9,25.0,30.48,SE,135,0.0,-999.0,91,-99.99,,,0.12,weatherlink.com 1.10,2013-10-16 10:23:00,
2013-10-16 04:38:00,25.7,23.0,30.48,SE,135,0.0,-999.0,90,-99.99,,,0.12,weatherlink.com 1.10,2013-10-16 10:38:00,
2013-10-16 04:53:00,26.0,24.0,30.48,SE,135,0.0,-999.0,92,-99.99,,,0.12,weatherlink.com 1.10,2013-10-16 10:53:00,
2013-10-16 05:08:00,26.3,24.0,30.49,North,360,0.0,-999.0,92,-99.99,,,0.12,weatherlink.com 1.10,2013-10-16 11:08:00,
2013-10-16 05:23:00,25.6,23.0,30.49,North,360,0.0,-999.0,91,-99.99,,,0.12,weatherlink.com 1.10,2013-10-16 11:23:00,
2013-10-16 05:38:00,25.1,23.0,30.49,North,360,0.0,-999.0,90,-99.99,,,0.12,weatherlink.com 1.10,2013-10-16 11:38:00,
2013-10-16 05:53:00,24.2,22.0,30.50,North,360,0.0,-999.0,91,-99.99,,,0.12,weatherlink.com 1.10,2013-10-16 11:53:00,
2013-10-16 06:08:00,24.6,23.0,30.51,ENE,68,2.0,-999.0,92,-99.99,,,0.12,weatherlink.com 1.10,2013-10-16 12:08:00,
2013-10-16 06:23:00,25.3,23.0,30.52,ENE,58,1.0,-999.0,92,-99.99,,,0.12,weatherlink.com 1.10,2013-10-16 12:23:00,
2013-10-16 06:38:00,25.7,24.0,30.52,NNE,33,0.0,-999.0,92,-99.99,,,0.12,weatherlink.com 1.10,2013-10-16 12:38:00,
2013-10-16 06:53:00,26.0,24.0,30.52,NNE,33,0.0,-999.0,92,-99.99,,,0.12,weatherlink.com 1.10,2013-10-16 12:53:00,
2013-10-16 07:08:00,26.2,24.0,30.53,NNE,33,0.0,-999.0,92,-99.99,,,0.12,weatherlink.com 1.10,2013-10-16 13:08:00,
2013-10-16 07:23:00,26.3,24.0,30.54,NNE,21,0.0,-999.0,92,-99.99,,,0.12,weatherlink.com 1.10,2013-10-16 13:23:00,
2013-10-16 07:38:00,26.2,24.0,30.54,NNE,21,0.0,-999.0,92,-99.99,,,0.12,weatherlink.com 1.10,2013-10-16 13:38:00,
2013-10-16 07:53:00,26.4,24.0,30.54,NNE,21,0.0,-999.0,92,-99.99,,,0.12,weatherlink.com 1.10,2013-10-16 13:53:00,
2013-10-16 08:08:00,26.7,25.0,30.55,ESE,109,0.0,-999.0,92,-99.99,,,0.12,weatherlink.com 1.10,2013-10-16 14:08:00,
2013-10-16 08:23:00,26.6,24.0,30.56,North,360,0.0,-999.0,91,-99.99,,,0.12,weatherlink.com 1.10,2013-10-16 14:23:00,
2013-10-16 08:38:00,26.4,24.0,30.56,North,360,0.0,-999.0,92,-99.99,,,0.12,weatherlink.com 1.10,2013-10-16 14:38:00,
2013-10-16 08:53:00,26.9,25.0,30.56,North,360,0.0,-999.0,92,-99.99,,,0.12,weatherlink.com 1.10,2013-10-16 14:53:00,
2013-10-16 09:08:00,27.2,25.0,30.56,ESE,103,1.0,-999.0,91,-99.99,,,0.12,weatherlink.com 1.10,2013-10-16 15:08:00,
2013-10-16 09:23:00,28.7,27.0,30.56,East,89,0.0,-999.0,92,-99.99,,,0.12,weatherlink.com 1.10,2013-10-16 15:23:00,
2013-10-16 09:38:00,29.9,26.0,30.56,North,360,1.0,-999.0,86,-99.99,,,0.12,weatherlink.com 1.10,2013-10-16 15:38:00,
2013-10-16 09:53:00,29.2,26.0,30.58,North,360,0.0,-999.0,86,-99.99,,,0.13,weatherlink.com 1.10,2013-10-16 15:53:00,
2013-10-16 10:08:00,28.4,25.0,30.58,North,360,0.0,-999.0,87,-99.99,,,0.13,weatherlink.com 1.10,2013-10-16 16:08:00,
2013-10-16 10:23:00,29.0,26.0,30.58,North,360,0.0,-999.0,87,-99.99,,,0.13,weatherlink.com 1.10,2013-10-16 16:23:00,
2013-10-16 10:38:00,31.1,28.0,30.57,SE,132,0.0,-999.0,87,-99.99,,,0.13,weatherlink.com 1.10,2013-10-16 16:38:00,
2013-10-16 10:53:00,32.1,28.0,30.57,North,360,0.0,-999.0,84,-99.99,,,0.00,weatherlink.com 1.10,2013-10-16 16:53:00,
2013-10-16 11:08:00,32.4,27.0,30.57,North,360,0.0,-999.0,81,-99.99,,,0.00,weatherlink.com 1.10,2013-10-16 17:08:00,
2013-10-16 11:23:00,32.4,28.0,30.57,North,360,3.0,-999.0,82,-99.99,,,0.01,weatherlink.com 1.10,2013-10-16 17:23:00,
2013-10-16 11:38:00,31.9,28.0,30.58,North,360,0.0,-999.0,84,-99.99,,,0.01,weatherlink.com 1.10,2013-10-16 17:38:00,
2013-10-16 11:53:00,33.0,27.0,30.57,North,9,1.0,-999.0,80,-99.99,,,0.01,weatherlink.com 1.10,2013-10-16 17:53:00,
2013-10-16 12:08:00,33.7,29.0,30.57,North,360,3.0,-999.0,82,-99.99,,,0.01,weatherlink.com 1.10,2013-10-16 18:08:00,
2013-10-16 12:23:00,35.0,29.0,30.57,North,5,4.0,-999.0,79,-99.99,,,0.01,weatherlink.com 1.10,2013-10-16 18:23:00,
2013-10-16 12:38:00,35.1,27.0,30.57,North,360,4.0,-999.0,73,-99.99,,,0.01,weatherlink.com 1.10,2013-10-16 18:38:00,
2013-10-16 12:53:00,33.9,27.0,30.57,North,360,0.0,-999.0,76,-99.99,,,0.01,weatherlink.com 1.10,2013-10-16 18:53:00,
2013-10-16 13:08:00,33.9,27.0,30.56,North,360,0.0,-999.0,75,-99.99,,,0.02,weatherlink.com 1.10,2013-10-16 19:08:00,
2013-10-16 13:23:00,34.4,26.0,30.56,North,360,0.0,-999.0,71,-99.99,,,0.02,weatherlink.com 1.10,2013-10-16 19:23:00,
2013-10-16 13:39:00,36.1,28.0,30.56,North,360,9.0,-999.0,72,-99.99,,,0.02,weatherlink.com 1.10,2013-10-16 19:39:00,
2013-10-16 13:54:00,37.1,26.0,30.55,ESE,123,1.0,-999.0,64,-99.99,,,0.02,weatherlink.com 1.10,2013-10-16 19:54:00,
2013-10-16 14:09:00,37.5,26.0,30.55,NNE,15,0.0,-999.0,64,-99.99,,,0.02,weatherlink.com 1.10,2013-10-16 20:09:00,
2013-10-16 14:24:00,38.4,28.0,30.54,North,360,2.0,-999.0,66,-99.99,,,0.02,weatherlink.com 1.10,2013-10-16 20:24:00,
2013-10-16 14:39:00,38.7,27.0,30.54,North,360,7.0,-999.0,62,-99.99,,,0.02,weatherlink.com 1.10,2013-10-16 20:39:00,
2013-10-16 15:09:00,39.9,27.0,30.53,North,360,5.0,-999.0,61,-99.99,,,0.02,weatherlink.com 1.10,2013-10-16 21:09:00,
2013-10-16 15:24:00,40.3,26.0,30.53,North,360,1.0,-999.0,56,-99.99,,,0.02,weatherlink.com 1.10,2013-10-16 21:24:00,
2013-10-16 15:39:00,40.6,26.0,30.54,North,360,3.0,-999.0,56,-99.99,,,0.02,weatherlink.com 1.10,2013-10-16 21:39:00,
2013-10-16 15:54:00,40.5,25.0,30.54,North,360,7.0,-999.0,55,-99.99,,,0.02,weatherlink.com 1.10,2013-10-16 21:54:00,
2013-10-16 16:09:00,40.4,25.0,30.54,North,360,3.0,-999.0,54,-99.99,,,0.02,weatherlink.com 1.10,2013-10-16 22:09:00,
2013-10-16 16:24:00,40.3,24.0,30.54,North,9,3.0,-999.0,53,-99.99,,,0.02,weatherlink.com 1.10,2013-10-16 22:24:00,
2013-10-16 16:39:00,40.6,24.0,30.54,North,360,2.0,-999.0,53,-99.99,,,0.02,weatherlink.com 1.10,2013-10-16 22:39:00,
2013-10-16 16:54:00,40.7,24.0,30.53,North,9,2.0,-999.0,51,-99.99,,,0.02,weatherlink.com 1.10,2013-10-16 22:54:00,
2013-10-16 17:09:00,40.6,24.0,30.52,North,9,0.0,-999.0,51,-99.99,,,0.02,weatherlink.com 1.10,2013-10-16 23:09:00,
2013-10-16 17:24:00,41.2,23.0,30.52,North,360,0.0,-999.0,49,-99.99,,,0.02,weatherlink.com 1.10,2013-10-16 23:24:00,
2013-10-16 17:39:00,40.6,22.0,30.52,North,360,0.0,-999.0,47,-99.99,,,0.02,weatherlink.com 1.10,2013-10-16 23:39:00,
2013-10-16 17:54:00,40.4,22.0,30.52,North,360,0.0,-999.0,49,-99.99,,,0.02,weatherlink.com 1.10,2013-10-16 23:54:00,
2013-10-16 18:09:00,40.4,22.0,30.52,North,360,7.0,-999.0,49,-99.99,,,0.02,weatherlink.com 1.10,2013-10-17 00:09:00,
2013-10-16 18:24:00,37.2,22.0,30.53,SE,133,2.0,-999.0,55,-99.99,,,0.02,weatherlink.com 1.10,2013-10-17 00:24:00,
2013-10-16 18:39:00,33.4,22.0,30.52,ESE,109,5.0,-999.0,63,-99.99,,,0.02,weatherlink.com 1.10,2013-10-17 00:39:00,
2013-10-16 18:54:00,30.8,21.0,30.53,SSE,160,2.0,-999.0,66,-99.99,,,0.02,weatherlink.com 1.10,2013-10-17 00:54:00,
2013-10-16 19:09:00,30.2,20.0,30.54,ESE,120,6.0,-999.0,66,-99.99,,,0.02,weatherlink.com 1.10,2013-10-17 01:09:00,
2013-10-16 19:24:00,29.1,19.0,30.53,SE,131,8.0,-999.0,66,-99.99,,,0.02,weatherlink.com 1.10,2013-10-17 01:24:00,
2013-10-16 19:39:00,29.0,18.0,30.53,SE,126,6.0,-999.0,63,-99.99,,,0.02,weatherlink.com 1.10,2013-10-17 01:39:00,
2013-10-16 19:55:00,29.1,17.0,30.53,SE,126,8.0,-999.0,61,-99.99,,,0.02,weatherlink.com 1.10,2013-10-17 01:55:00,
2013-10-16 20:09:00,29.3,17.0,30.53,ESE,115,6.0,-999.0,60,-99.99,,,0.02,weatherlink.com 1.10,2013-10-17 02:09:00,
2013-10-16 20:24:00,29.3,17.0,30.54,SE,126,8.0,-999.0,60,-99.99,,,0.02,weatherlink.com 1.10,2013-10-17 02:24:00,
2013-10-16 20:39:00,28.8,17.0,30.54,ESE,113,7.0,-999.0,61,-99.99,,,0.02,weatherlink.com 1.10,2013-10-17 02:39:00,
2013-10-16 20:54:00,27.8,17.0,30.55,East,101,4.0,-999.0,63,-99.99,,,0.02,weatherlink.com 1.10,2013-10-17 02:54:00,
2013-10-16 21:10:00,26.9,17.0,30.55,ESE,103,4.0,-999.0,66,-99.99,,,0.02,weatherlink.com 1.10,2013-10-17 03:10:00,
2013-10-16 21:24:00,26.3,17.0,30.55,SE,128,4.0,-999.0,67,-99.99,,,0.02,weatherlink.com 1.10,2013-10-17 03:24:00,
2013-10-16 21:40:00,25.7,16.0,30.55,East,100,2.0,-999.0,68,-99.99,,,0.02,weatherlink.com 1.10,2013-10-17 03:40:00,
2013-10-16 21:55:00,25.6,17.0,30.56,SE,138,5.0,-999.0,70,-99.99,,,0.02,weatherlink.com 1.10,2013-10-17 03:55:00,
2013-10-16 22:10:00,25.5,18.0,30.56,SE,132,6.0,-999.0,74,-99.99,,,0.02,weatherlink.com 1.10,2013-10-17 04:10:00,
2013-10-16 22:25:00,26.2,18.0,30.56,SE,135,2.0,-999.0,71,-99.99,,,0.02,weatherlink.com 1.10,2013-10-17 04:25:00,
2013-10-16 22:40:00,24.9,17.0,30.56,ESE,111,4.0,-999.0,73,-99.99,,,0.02,weatherlink.com 1.10,2013-10-17 04:40:00,
2013-10-16 22:54:00,24.5,17.0,30.56,SE,128,4.0,-999.0,74,-99.99,,,0.02,weatherlink.com 1.10,2013-10-17 04:54:00,
2013-10-16 23:10:00,23.9,17.0,30.56,SE,134,6.0,-999.0,76,-99.99,,,0.02,weatherlink.com 1.10,2013-10-17 05:10:00,
2013-10-16 23:25:00,23.5,17.0,30.55,ESE,118,4.0,-999.0,77,-99.99,,,0.02,weatherlink.com 1.10,2013-10-17 05:25:00,
2013-10-16 23:40:00,23.5,17.0,30.55,SE,141,5.0,-999.0,77,-99.99,,,0.02,weatherlink.com 1.10,2013-10-17 05:40:00,
2013-10-16 23:55:00,23.2,17.0,30.55,SE,142,4.0,-999.0,77,-99.99,,,0.02,weatherlink.com 1.10,2013-10-17 05:55:00,